Location: Prague
(50.0830°N, 14.4670°E)
Time: 23:44:15
(UTC+01:00)

HuskySat-1 - Pass Details

Date: 03 December 2021
Orbit: 439 x 453 km, 51.6° (Epoch: 25 January)

Event Time Altitude Azimuth Distance (km) Brightness Sun altitude
Rises 17:06:37 0° 201° (SSW) 2,463 ? -9.9°
Reaches altitude 10° 17:09:18 10° 180° (S) 1,591 ? -10.3°
Maximum altitude 17:11:39 17° 139° (SE) 1,241 ? -10.7°
Enters shadow 17:13:34 12° 103° (ESE) 1,486 ? -11.0°
